Joplin, MO

9:44 AM CST on November 12, 2019 (GMT -0600)
Joplin Regional

Weather History for KJLN - September, 2019

Change the Weather History Date:

Sunday, September 29, 2019

  Actual Average Record
Temperature  
Mean Temperature 80 °F 65 °F  
Max Temperature 87 °F 77 °F 97 °F (1953)
Min Temperature 73 °F 54 °F 35 °F (1984)
Degree Days  
Heating Degree Days 0 3  
Month to date heating degree days 0 34  
Since 1 July heating degree days 0 35  
Cooling Degree Days 15 4  
Month to date cooling degree days 392 211  
Year to date cooling degree days 1643 1638  
Growing Degree Days 30 (Base 50)    
Moisture  
Dew Point 70 °F    
Average Humidity 76    
Maximum Humidity 87    
Minimum Humidity 61    
Precipitation  
Precipitation 0.00 in 0.16 in 3.37 in (1954)
Month to date precipitation 4.45 4.80  
Year to date precipitation 53.34 35.77  
Sea Level Pressure  
Sea Level Pressure 29.99 in    
Wind  
Wind Speed 10 mph ()    
Max Wind Speed 23 mph    
Max Gust Speed 33 mph    
Visibility 10.0 miles    
Events      
T = Trace of Precipitation, MM = Missing Value Source: Averaged Metar Reports

Daily Weather History Graph

Daily Weather History Graph

Search for Another Location

Airport or City:

Astronomy

Sep. 29, 2019 Rise Set
Actual Time 7:11 AM CDT 7:04 PM CDT
Civil Twilight 6:45 AM CDT 7:30 PM CDT
Nautical Twilight 6:15 AM CDT 8:00 PM CDT
Astronomical Twilight 5:44 AM CDT 8:31 PM CDT
Moon 8:03 AM CDT (9/29) 8:06 PM CDT (9/29)
Length of Visible Light 12h 44m
Length of Day
11h 53m
New Moon, 1% of the Moon is Illuminated
Sep 29
New Moon
Oct 5
First Quarter
Oct 13
Full
Oct 21
Last Quarter
Oct 27
New

Hourly Weather History & Observations

Time (CDT) Temp. Heat Index Dew Point Humidity Pressure Visibility Wind Dir Wind Speed Gust Speed Precip Events Conditions
12:53 AM 75.9 °F - 71.1 °F 85% 29.96 in 10.0 mi SSE 9.2 mph - N/A   Clear
1:53 AM 75.0 °F - 71.1 °F 87% 29.97 in 10.0 mi SSE 6.9 mph - N/A   Clear
2:53 AM 75.0 °F - 71.1 °F 87% 29.96 in 10.0 mi SSE 8.1 mph - N/A   Clear
3:53 AM 75.0 °F - 71.1 °F 87% 29.96 in 10.0 mi SSE 9.2 mph - N/A   Clear
4:53 AM 75.0 °F - 70.0 °F 84% 29.98 in 10.0 mi South 10.4 mph - N/A   Clear
5:53 AM 75.0 °F - 69.1 °F 82% 30.00 in 10.0 mi South 11.5 mph - N/A   Mostly Cloudy
6:53 AM 73.9 °F - 69.1 °F 85% 30.01 in 10.0 mi South 9.2 mph - N/A   Partly Cloudy
7:53 AM 73.9 °F - 69.1 °F 85% 30.02 in 10.0 mi South 15.0 mph - N/A   Partly Cloudy
8:53 AM 77.0 °F - 69.1 °F 76% 30.03 in 10.0 mi South 13.8 mph - N/A   Clear
9:53 AM 81.0 °F 84.4 °F 70.0 °F 69% 30.04 in 10.0 mi South 16.1 mph 27.6 mph N/A   Clear
10:53 AM 82.9 °F 86.5 °F 69.1 °F 63% 30.02 in 10.0 mi SSW 20.7 mph 28.8 mph N/A   Clear
11:53 AM 84.9 °F 89.4 °F 70.0 °F 61% 30.01 in 10.0 mi South 17.3 mph 29.9 mph N/A   Clear
12:53 PM 84.9 °F 90.1 °F 71.1 °F 63% 30.01 in 10.0 mi South 17.3 mph 24.2 mph N/A   Scattered Clouds
1:53 PM 84.0 °F 88.4 °F 70.0 °F 63% 29.99 in 10.0 mi South 15.0 mph 28.8 mph N/A   Overcast
2:53 PM 84.0 °F 89.6 °F 72.0 °F 67% 29.98 in 10.0 mi SSW 13.8 mph - N/A   Overcast
3:53 PM 82.0 °F 86.3 °F 71.1 °F 69% 29.98 in 10.0 mi South 12.7 mph - N/A   Overcast
4:53 PM 82.0 °F 86.7 °F 72.0 °F 71% 29.98 in 10.0 mi South 8.1 mph - N/A   Overcast
5:53 PM 82.0 °F 86.7 °F 72.0 °F 71% 29.98 in 10.0 mi South 8.1 mph - N/A   Mostly Cloudy
6:53 PM 80.1 °F 83.8 °F 72.0 °F 76% 29.98 in 10.0 mi SSE 6.9 mph - N/A   Mostly Cloudy
7:53 PM 79.0 °F - 71.1 °F 77% 29.98 in 10.0 mi SSE 9.2 mph - N/A   Scattered Clouds
8:53 PM 79.0 °F - 70.0 °F 74% 29.98 in 10.0 mi SSE 8.1 mph - N/A   Clear
9:53 PM 78.1 °F - 70.0 °F 76% 29.99 in 10.0 mi SSE 9.2 mph - N/A   Clear
10:53 PM 75.9 °F - 69.1 °F 79% 29.99 in 10.0 mi SSE 6.9 mph - N/A   Clear
11:53 PM 77.0 °F - 69.1 °F 76% 29.98 in 10.0 mi SSE 10.4 mph - N/A   Clear